CZ-6A R/B, 68661

Orbit data source: Space-Track

CZ-6A R/B, 68661 is space debris in LEO originally from a launch on Wed, 08 Apr 2026 UTC launched from the Taiyaun Space Center, China (TSC). Debris objects in space refer to the collection of defunct objects orbiting the Earth. Examples of debris include non-operational satellites, rocket bodies, and fragments generated from explosions, collisions, or faulty payload assembly.

Loading next visibility...
Identifier
68661, 2026-076F
Orbit
LEO
Country
Flag of CNCN / PRC
Related business
Manufacturer
SAST
Mission
Spacecraft
Bus & Motor
CZ-6A STAGE 2, YF-115
Mass
~6,000 kg wet, ~6,000 kg dry
Launch date (UTC)
2026-04-08 (1 month ago)
Launch vehicle
Unknown
Launch site
Taiyaun Space Center, China (TSC)
Object type
Payload
Rocket body
Debris
Shape & HBR
Unknown shape, 8.0 m
Radar Cross Section
RCS unknown

Expand to show TLE details & history
Last TLE update: 6 hours ago

TLE from 6 hours ago
0 CZ-6A R/B
1 68661U 26076F   26140.68284657 -.00000039  00000-0 -31106-4 0  9996
2 68661  86.5102  52.1269 0104683 340.9871  18.7414 14.09397255  5904
Epoch: 2026-05-20T16:23Z
TLE epoch observation values (Epoch: 2026-05-20T16:23:17.943Z)
Latitude
-0.00006°
Longitude
-72.03676°
Altitude
792.753 km
Speed
7.494 km/s
True Right ascension
03h 28m 30s
True Declination
0° 00' 00"
Sunlit
Object was in daylight at epoch
Visualization orbit readout
Latitude
Unknown
Longitude
Unknown
Altitude
Unknown
Speed
Unknown
Apparent Right ascension
Unknown
Apparent Declination
Unknown
Sunlit
N/A
Visualization observer readout
Local Sidereal Time
07:21:16
Azimuth
Unknown
Elevation
Unknown
Doppler factor
Unknown
Orbital elements
Apogee altitude
934.187 km
Perigee altitude
782.677 km
Semi-major axis
7,236.569 km
Eccentricity
0.01047
Inclination
86.5102°
RAAN
52.1269°
Arg. of periapsis
340.9871°
True anomaly
19.13165°
Mean anomaly
18.7414°
Eccentric anomaly
18.93604°
Mean motion
3.52569 °/min
Orbital period
102.11 mins
BSTAR
-0.000031106
Loading maneuver chart data...
Computing Atmospheric mass density...
Loading historical data...
Loading historical data...
Loading historical data...
Loading historical data...
Loading historical data...
Loading historical data...
Loading historical data...

Documentation

Showing up to 5 results
|